sat.trackr.live / text

‹ back to catalog

STARLINK-31747

NORAD 59564 · 2024-076A

PAYLOAD ACTIVE UNKNOWN

§ Identity

Operator
Country
US
Launch date
2024-04-23
Launch site
AFETR
Launch vehicle
Mass (kg)
RCS (m²)

Purposes: comms

External: N2YO · Heavens-Above · Gunter

§ Orbital elements

Epoch: 2026-09-21T12:18:27.749088Z

Period
94.27 min
Inclination
43.0037°
Eccentricity
0.0001120
Mean motion
15.27576423 rev/d
Perigee alt
482.3 km
Apogee alt
483.8 km
Semi-major
6,861.2 km
B*
-1.8540e-6
RAAN
332.5123°
Arg perigee
266.5466°
Mean anomaly
93.5257°
Rev number
13,656

§ Raw data

STARLINK-317471 59564U 24076A   26264.51282117 -.00000313  00000+0 -18540-5 0  99962 59564  43.0037 332.5123 0001120 266.5466  93.5257 15.27576423136560

JSON: /api/v1/satellites/59564 · /tle

For live sub-satellite position, see the globe view (requires WebGL).

§ Visibility from observer

Set your observer location to see the next 7 days of passes ≥ 10°. The values pass through the URL so the page stays shareable.

No JS? Fill the form by hand. The geolocation button needs JavaScript.